Mountain Home, AR

11:44 PM CST on November 17, 2017 (GMT -0600)
Baxter County Regional

Weather History for KBPK - December, 2011

Change the Weather History Date:

Sunday, December 4, 2011

  Actual Average (KFLP) Record (KFLP)
Temperature  
Mean Temperature 47 °F -  
Max Temperature 57 °F 51 °F 78 °F (2001)
Min Temperature 37 °F 33 °F 15 °F (2006)
Degree Days  
Heating Degree Days 18    
Moisture  
Dew Point 42 °F    
Average Humidity 93    
Maximum Humidity 100    
Minimum Humidity 86    
Precipitation  
Precipitation 0.72 in - - ()
Sea Level Pressure  
Sea Level Pressure 30.11 in    
Wind  
Wind Speed 5 mph (NW)    
Max Wind Speed 10 mph    
Max Gust Speed 17 mph    
Visibility 7 miles    
Events Rain    
Averages and records for this station are not official NWS values.
T = Trace of Precipitation, MM = Missing Value Source: NWS Daily Summary

Daily Weather History Graph

Daily Weather History Graph

Search for Another Location

Airport or City:

Trip Planner

Search our weather history database for the weather conditions in past years. The results will help you decide how hot, cold, wet, or windy it might be!

Date:

Astronomy

Dec. 04, 2011 Rise Set
Actual Time 7:05 AM CST 4:54 PM CST
Civil Twilight 6:36 AM CST 5:22 PM CST
Nautical Twilight 6:05 AM CST 5:54 PM CST
Astronomical Twilight 5:33 AM CST 6:26 PM CST
Moon 1:18 PM CST (12/4) 1:38 AM CST (12/4)
Length of Visible Light 10h 46m
Length of Day
9h 49m
Waxing Gibbous, 72% of the Moon is Illuminated
Dec 4
Waxing Gibbous
Dec 10
Full
Dec 17
Last Quarter
Dec 24
New
Jan 1
First Quarter

Hourly Weather History & Observations

Time (CST) Temp. Windchill Dew Point Humidity Pressure Visibility Wind Dir Wind Speed Gust Speed Precip Events Conditions
12:13 AM 55.4 °F - 55.4 °F 100% 30.02 in 2.5 mi SSE 5.8 mph - 0.05 in Rain Heavy Rain
12:25 AM 55.4 °F - 55.4 °F 100% 30.02 in 3.0 mi SSE 6.9 mph - 0.09 in Rain Rain
12:53 AM 57.0 °F - 55.9 °F 96% 30.00 in 5.0 mi South 8.1 mph - 0.17 in Rain Light Rain
1:53 AM 55.9 °F - 54.0 °F 93% 30.02 in 9.0 mi SW 5.8 mph - 0.12 in Rain Light Rain
2:04 AM 55.4 °F - 53.6 °F 94% 30.04 in 6.0 mi Variable 4.6 mph - 0.01 in Rain Light Rain
2:53 AM 55.9 °F - 53.1 °F 90% 30.02 in 8.0 mi SW 8.1 mph - 0.04 in Rain Light Rain
3:06 AM 53.6 °F - 51.8 °F 94% 30.02 in 8.0 mi WNW 4.6 mph - 0.01 in Rain Light Rain
3:21 AM 50.0 °F - 48.2 °F 94% 30.04 in 8.0 mi NW 6.9 mph - 0.01 in Rain Light Rain
3:36 AM 48.2 °F - 46.4 °F 93% 30.03 in 8.0 mi NW 6.9 mph - 0.02 in Rain Light Rain
3:53 AM 48.9 °F - 46.9 °F 93% 30.02 in 10.0 mi NW 5.8 mph - 0.02 in   Overcast
4:05 AM 48.2 °F - 46.4 °F 93% 30.04 in 9.0 mi NW 5.8 mph - 0.00 in Rain Light Rain
4:53 AM 48.0 °F - 46.0 °F 93% 30.05 in 10.0 mi Variable 4.6 mph - 0.00 in   Overcast
5:53 AM 46.9 °F - 45.0 °F 93% 30.05 in 10.0 mi NW 6.9 mph - 0.01 in Rain Light Rain
6:53 AM 46.9 °F - 44.1 °F 90% 30.11 in 10.0 mi West 6.9 mph - 0.00 in Rain Light Rain
6:56 AM 46.4 °F 44.3 °F 44.6 °F 93% 30.11 in 10.0 mi Variable 4.6 mph - 0.00 in Rain Light Rain
7:12 AM 46.4 °F 41.5 °F 42.8 °F 87% 30.13 in 9.0 mi NW 10.4 mph 17.3 mph 0.01 in Rain Light Rain
7:22 AM 44.6 °F 39.2 °F 42.8 °F 93% 30.13 in 7.0 mi NW 10.4 mph 17.3 mph 0.01 in Rain Light Rain
7:51 AM 44.6 °F 41.4 °F 42.8 °F 93% 30.13 in 6.0 mi NNW 5.8 mph - 0.03 in Rain Light Rain
7:53 AM 44.1 °F 40.1 °F 43.0 °F 96% 30.14 in 6.0 mi NW 6.9 mph - 0.03 in Rain Light Rain
8:04 AM 44.6 °F 43.1 °F 42.8 °F 93% 30.15 in 6.0 mi NW 3.5 mph - 0.01 in Rain Light Rain
8:53 AM 42.1 °F 39.2 °F 41.0 °F 96% 30.15 in 3.0 mi NNW 4.6 mph - 0.04 in Rain Heavy Rain
9:01 AM 41.0 °F 39.0 °F 39.2 °F 93% 30.15 in 2.5 mi NNW 3.5 mph - 0.00 in Rain Heavy Rain
9:32 AM 41.0 °F - 39.2 °F 93% 30.14 in 3.0 mi Calm Calm - N/A Rain Rain
9:53 AM 41.0 °F 39.0 °F 39.9 °F 96% 30.13 in 5.0 mi NNW 3.5 mph - N/A Rain Light Rain
10:40 AM 42.8 °F 41.1 °F 41.0 °F 93% 30.11 in 7.0 mi NNW 3.5 mph - 0.05 in Rain Light Rain
10:53 AM 43.0 °F 41.3 °F 41.0 °F 93% 30.11 in 7.0 mi NNW 3.5 mph - 0.06 in   Overcast
11:53 AM 42.1 °F 38.4 °F 39.9 °F 92% 30.10 in 10.0 mi NNW 5.8 mph - 0.05 in   Overcast
12:34 PM 42.8 °F - 39.2 °F 87% 30.09 in 10.0 mi Calm Calm - 0.03 in Rain Light Rain
12:53 PM 42.1 °F 40.2 °F 39.0 °F 89% 30.12 in 10.0 mi WNW 3.5 mph - 0.04 in Rain Light Rain
1:10 PM 42.8 °F 41.1 °F 39.2 °F 87% 30.13 in 5.0 mi WNW 3.5 mph - 0.01 in Rain Light Rain
1:34 PM 41.0 °F 38.0 °F 39.2 °F 93% 30.13 in 7.0 mi Variable 4.6 mph - 0.03 in Rain Light Rain
1:53 PM 42.1 °F 39.2 °F 39.9 °F 92% 30.11 in 6.0 mi NNW 4.6 mph - 0.04 in Rain Light Rain
2:03 PM 41.0 °F 39.0 °F 39.2 °F 93% 30.12 in 6.0 mi NW 3.5 mph - 0.00 in Rain Light Rain
2:18 PM 41.0 °F 38.0 °F 39.2 °F 93% 30.11 in 5.0 mi NW 4.6 mph - 0.01 in Rain Light Rain
2:26 PM 41.0 °F - 39.2 °F 93% 30.11 in 5.0 mi Calm Calm - 0.02 in Rain Light Rain
2:36 PM 42.8 °F 41.1 °F 39.2 °F 87% 30.12 in 5.0 mi Variable 3.5 mph - 0.02 in Rain Light Rain
2:53 PM 41.0 °F - 39.9 °F 96% 30.11 in 5.0 mi Calm Calm - 0.03 in Rain Light Rain
3:04 PM 41.0 °F 39.0 °F 39.2 °F 93% 30.11 in 6.0 mi Variable 3.5 mph - 0.01 in Rain Light Rain
3:20 PM 41.0 °F - 39.2 °F 93% 30.12 in 6.0 mi Calm Calm - 0.02 in Rain Light Rain
3:48 PM 41.0 °F 38.0 °F 39.2 °F 93% 30.13 in 5.0 mi Variable 4.6 mph - 0.03 in Rain Light Rain
3:53 PM 41.0 °F 38.0 °F 39.0 °F 93% 30.15 in 4.0 mi NNW 4.6 mph - 0.03 in Rain Light Rain
4:53 PM 39.9 °F 37.8 °F 39.0 °F 97% 30.15 in 6.0 mi NW 3.5 mph - 0.03 in   Overcast
5:16 PM 39.2 °F - 39.2 °F 100% 30.15 in 5.0 mi Calm Calm - N/A   Overcast
5:43 PM 39.2 °F - 39.2 °F 100% 30.16 in 6.0 mi Calm Calm - N/A   Overcast
5:53 PM 39.9 °F - 39.0 °F 97% 30.17 in 7.0 mi Calm Calm - N/A   Overcast
6:43 PM 39.2 °F - 37.4 °F 93% 30.18 in 8.0 mi Calm Calm - 0.00 in Rain Light Rain
7:43 PM 39.2 °F 35.9 °F 37.4 °F 93% 30.15 in 9.0 mi North 4.6 mph - 0.00 in Rain Light Rain
7:53 PM 39.0 °F 34.8 °F 37.0 °F 93% 30.16 in 8.0 mi NNW 5.8 mph - 0.01 in Rain Light Rain
8:53 PM 39.0 °F 36.8 °F 36.0 °F 89% 30.19 in 10.0 mi North 3.5 mph - 0.00 in   Overcast
9:53 PM 39.0 °F 34.8 °F 35.1 °F 86% 30.17 in 9.0 mi Variable 5.8 mph - 0.00 in Rain Light Rain
10:12 PM 37.4 °F 33.8 °F 35.6 °F 93% 30.19 in 10.0 mi NW 4.6 mph - 0.00 in Rain Light Rain
10:53 PM 37.9 °F 33.5 °F 34.0 °F 86% 30.17 in 10.0 mi Variable 5.8 mph - 0.00 in   Overcast
11:07 PM 37.4 °F 32.8 °F 33.8 °F 87% 30.16 in 10.0 mi North 5.8 mph - 0.00 in Rain Light Rain
11:17 PM 37.4 °F 34.9 °F 33.8 °F 87% 30.16 in 10.0 mi Variable 3.5 mph - 0.00 in Rain Light Rain